Weather History for KHUT - September, 2012

Change the Weather History Date:

Thursday, September 27, 2012

  Actual Average Record
Temperature  
Mean Temperature 66 °F -  
Max Temperature 73 °F 75 °F 93 °F (1998)
Min Temperature 60 °F 48 °F 37 °F (2000)
Cooling Degree Days 2    
Growing Degree Days 16 (Base 50)    
Moisture  
Dew Point 59 °F    
Average Humidity 81    
Maximum Humidity 93    
Minimum Humidity 64    
Precipitation  
Precipitation 0.00 in - - ()
Sea Level Pressure  
Sea Level Pressure 30.12 in    
Wind  
Wind Speed 5 mph (NE)    
Max Wind Speed 8 mph    
Max Gust Speed -    
Visibility 10 miles    
Events      
Averages and records for this station are not official NWS values.
T = Trace of Precipitation, MM = Missing Value Source: NWS Daily Summary

Daily Weather History Graph

Daily Weather History Graph

Search for Another Location

Airport or City:

Trip Planner

Search our weather history database for the weather conditions in past years. The results will help you decide how hot, cold, wet, or windy it might be!

Date:

Astronomy

Sep. 27, 2012 Rise Set
Actual Time 7:24 AM CDT 7:19 PM CDT
Civil Twilight 6:57 AM CDT 7:46 PM CDT
Nautical Twilight 6:27 AM CDT 8:16 PM CDT
Astronomical Twilight 5:56 AM CDT 8:47 PM CDT
Moon 5:50 PM CDT (9/27) 4:56 AM CDT (9/27)
Length of Visible Light 12h 48m
Length of Day
11h 55m
Waxing Gibbous, 94% of the Moon is Illuminated
Sep 27
Waxing Gibbous
Sep 29
Full
Oct 8
Last Quarter
Oct 15
New
Oct 21
First Quarter

Hourly Weather History & Observations

Time (CDT) Temp. Dew Point Humidity Pressure Visibility Wind Dir Wind Speed Gust Speed Precip Events Conditions
12:52 AM 62.1 °F 57.0 °F 84% 30.08 in 10.0 mi NE 6.9 mph - N/A   Scattered Clouds
1:52 AM 61.0 °F 55.9 °F 83% 30.09 in 10.0 mi NE 3.5 mph - N/A   Clear
2:52 AM 60.1 °F 55.9 °F 86% 30.10 in 10.0 mi East 3.5 mph - N/A   Partly Cloudy
3:06 AM 60.8 °F 57.2 °F 88% 30.15 in 10.0 mi Calm Calm - N/A   Mostly Cloudy
3:52 AM 60.8 °F 57.2 °F 88% 30.14 in 10.0 mi ENE 3.5 mph - N/A   Mostly Cloudy
4:52 AM 61.0 °F 57.9 °F 90% 30.08 in 9.0 mi NE 8.1 mph - N/A   Overcast
5:52 AM 62.1 °F 57.9 °F 86% 30.09 in 9.0 mi NE 4.6 mph - N/A   Overcast
6:52 AM 61.0 °F 57.9 °F 90% 30.09 in 9.0 mi NNE 5.8 mph - N/A   Overcast
7:52 AM 61.0 °F 57.9 °F 90% 30.11 in 7.0 mi NNE 5.8 mph - N/A   Overcast
8:52 AM 62.1 °F 57.9 °F 86% 30.12 in 9.0 mi Calm Calm - N/A   Mostly Cloudy
9:21 AM 62.6 °F 57.2 °F 82% 30.17 in 9.0 mi NE 4.6 mph - N/A   Mostly Cloudy
9:52 AM 63.0 °F 59.0 °F 87% 30.13 in 10.0 mi East 3.5 mph - N/A   Overcast
10:26 AM 64.4 °F 59.0 °F 83% 30.18 in 10.0 mi ENE 4.6 mph - N/A   Scattered Clouds
10:52 AM 66.0 °F 60.1 °F 81% 30.14 in 10.0 mi NNE 3.5 mph - N/A   Clear
11:34 AM 68.0 °F 60.8 °F 78% 30.18 in 10.0 mi NE 3.5 mph - N/A   Overcast
11:52 AM 68.0 °F 61.0 °F 78% 30.14 in 10.0 mi NNE 5.8 mph - N/A   Overcast
12:13 PM 68.0 °F 60.8 °F 78% 30.18 in 10.0 mi Variable 3.5 mph - N/A   Overcast
12:48 PM 69.8 °F 60.8 °F 73% 30.16 in 10.0 mi NE 6.9 mph - N/A   Mostly Cloudy
12:52 PM 70.0 °F 61.0 °F 73% 30.12 in 10.0 mi ENE 8.1 mph - N/A   Scattered Clouds
1:15 PM 71.6 °F 60.8 °F 69% 30.15 in 10.0 mi Variable 5.8 mph - N/A   Mostly Cloudy
1:22 PM 71.6 °F 60.8 °F 69% 30.15 in 10.0 mi Variable 4.6 mph - N/A   Mostly Cloudy
1:52 PM 71.1 °F 61.0 °F 70% 30.10 in 10.0 mi NNE 5.8 mph - N/A   Overcast
2:52 PM 73.0 °F 62.1 °F 68% 30.09 in 10.0 mi North 4.6 mph - N/A   Mostly Cloudy
3:52 PM 73.9 °F 61.0 °F 64% 30.08 in 10.0 mi NNE 6.9 mph - N/A   Mostly Cloudy
4:34 PM 71.6 °F 60.8 °F 69% 30.13 in 10.0 mi Variable 4.6 mph - N/A   Overcast
4:52 PM 71.1 °F 61.0 °F 70% 30.08 in 10.0 mi ENE 6.9 mph - N/A   Overcast
6:52 PM 70.0 °F 61.0 °F 73% 30.06 in 10.0 mi East 3.5 mph - N/A   Mostly Cloudy
7:52 PM 66.9 °F 61.0 °F 81% 30.08 in 10.0 mi Calm Calm - N/A   Partly Cloudy
8:52 PM 64.0 °F 60.1 °F 87% 30.09 in 10.0 mi Calm Calm - N/A   Clear
9:52 PM 61.0 °F 59.0 °F 93% 30.10 in 8.0 mi Calm Calm - N/A   Clear
10:52 PM 62.1 °F 59.0 °F 90% 30.11 in 8.0 mi ENE 4.6 mph - N/A   Clear
11:52 PM 61.0 °F 57.9 °F 90% 30.11 in 7.0 mi ENE 3.5 mph - N/A   Clear